Flag for U.S.A. Weather past 2 weeks in Unalaska, Alaska, U.S.A.

44 °F


Feels Like: 44 °F
Forecast: 42 / 47 °F
Wind: No wind

Location: Dutch Harbor

Current Time: Oct 7, 2015 at 2:39:45 AM

Latest Report: Oct 7, 2015 at 1:56 AM

Visibility: 10 mi

Pressure: 29.79 "Hg

Humidity: 76%

Dew point: 37 °F

Location of UnalaskaLocation

Historic Weather in Unalaska — Graph


Unalaska temperature yesterday

Maximum temperature yesterday: 51 °F (at 2:56 PM)
Minimum temperature yesterday: 46 °F (at 9:56 AM)
Average temperature yesterday: 48 °F

Past Weeks' High & Low Weather Summary

High68 °F (Sep 26, 2:59 PM)93% (Sep 28, 1:56 AM)30.54 "Hg (Sep 28, 1:56 AM)
Low43 °F (Sep 23, 4:56 AM)51% (Sep 28, 4:56 PM)29.52 "Hg (Sep 27, 8:56 AM)
Average51 °F72%30.06 "Hg
* Reported Sep 22 12:56 AM — Oct 7 12:56 AM, Unalaska, Weather by CustomWeather, © 2015

Note: Actual official high and low records may vary slightly from our data, if they occured in-between our weather recording intervals... More about our weather records


Unalaska weather history for previous 24 hours

Time TempWeatherWind HumidityBarometerVisibility
12:56 AM
Wed, Oct 7
46 °FPassing clouds.No wind73%29.80 "Hg10 mi
11:56 PM
Tue, Oct 6
46 °FMostly cloudy.6 mph73%29.81 "Hg10 mi
10:56 PM47 °FMostly cloudy.6 mph74%29.81 "Hg10 mi
9:56 PM48 °FLight rain. Mostly cloudy.9 mph68%29.81 "Hg10 mi
8:56 PM47 °FPartly sunny.6 mph71%29.82 "Hg10 mi
7:56 PM47 °FLight rain. Mostly cloudy.7 mph83%29.82 "Hg10 mi
6:56 PM48 °FLight rain. Mostly cloudy.8 mph77%29.82 "Hg9 mi
5:56 PM49 °FLight rain. Overcast.12 mph74%29.83 "Hg9 mi
4:56 PM50 °FPartly sunny.13 mph68%29.83 "Hg10 mi
3:56 PM51 °FPartly sunny.8 mph61%29.84 "Hg10 mi
2:56 PM51 °FPassing clouds.7 mph59%29.85 "Hg10 mi
1:56 PM50 °FScattered clouds.8 mph59%29.86 "Hg10 mi
12:56 PM50 °FPassing clouds.8 mph61%29.86 "Hg10 mi
11:56 AM49 °FScattered clouds.12 mph64%29.87 "Hg10 mi
10:56 AM47 °FLight rain. Partly sunny.8 mph74%29.87 "Hg10 mi
9:56 AM46 °FPassing clouds.No wind77%29.85 "Hg10 mi
8:56 AM47 °FLight rain. Overcast.No wind71%29.85 "Hg10 mi
7:56 AM47 °FOvercast.6 mph74%29.85 "Hg10 mi
6:56 AM47 °FPassing clouds.7 mph71%29.84 "Hg10 mi
5:56 AM48 °FOvercast.8 mph68%29.84 "Hg10 mi
4:56 AM48 °FMostly cloudy.3 mph68%29.84 "Hg10 mi
3:56 AM49 °FOvercast.6 mph66%29.84 "Hg10 mi
2:56 AM49 °FMostly cloudy.6 mph77%29.83 "Hg10 mi
Weather by CustomWeather, © 2015

See weather overviewHow to use our weather pages